Location: Prague
(50.0830°N, 14.4670°E)
Time: 17:48:43
(UTC+02:00)

DOVE 4 - Pass Details

Date: 07 April 2023
Orbit: 584 x 791 km, 97.8° (Epoch: 03 June)

Event Time Altitude Azimuth Distance (km) Brightness Sun altitude
Rises 00:38:49 0° 8° (N) 3,097 ? -33.0°
Reaches altitude 10° 00:41:14 10° 2° (N) 2,140 ? -33.1°
Enters shadow 00:43:56 30° 339° (NNW) 1,202 ? -33.1°
